Flag for Mongolia Weather past 2 weeks in Ulaanbaatar, Mongolia

Now
34 °F

Passing clouds.


Feels Like: 34 °F
Forecast: 21 / 53 °F
Wind: No wind

Location: Ulan-Bator

Current Time: Oct 2, 2014 at 1:12:59 AM

Latest Report: Oct 2, 2014 at 1:00 AM


Visibility: N/A

Pressure: 30.04 "Hg

Humidity: 87%

Dew point: 30 °F

Location of UlaanbaatarLocation

Historic Weather in Ulaanbaatar — Graph

°F

Ulaanbaatar temperature yesterday

Maximum temperature yesterday: 54 °F (at 2:30 PM)
Minimum temperature yesterday: 21 °F (at 7:00 AM)
Average temperature yesterday: 39 °F

Past Weeks' High & Low Weather Summary

 TemperatureHumidityPressure
High72 °F (Sep 20, 3:00 PM)93% (Sep 19, 6:30 AM)30.42 "Hg (Sep 19, 6:30 AM)
Low7 °F (Sep 29, 7:00 AM)14% (Sep 26, 5:00 PM)29.80 "Hg (Sep 20, 7:00 PM)
Average41 °F53%30.07 "Hg
* Reported Midnight between Sep 16 and Sep 17 — Midnight between Oct 1 and Oct 2, Ulaanbaatar, Weather by CustomWeather, © 2014

Note: Actual official high and low records may vary slightly from our data, if they occured in-between our weather recording intervals... More about our weather records

Advertising

Ulaanbaatar weather history for previous 24 hours

 ConditionsComfort  
Time TempWeatherWind HumidityBarometerVisibility
12:00 AM
Oct 2
34 °FPassing clouds.No wind81%30.04 "HgN/A
11:30 PM
Oct 1
41 °FPassing clouds.No wind61%30.04 "HgN/A
11:00 PM43 °FPassing clouds.3 mph57%30.04 "HgN/A
10:30 PM43 °FPassing clouds.1 mph57%30.04 "HgN/A
10:00 PM43 °FPassing clouds.3 mph57%30.04 "HgN/A
9:30 PM43 °FPassing clouds.8 mph57%30.04 "HgN/A
9:00 PM45 °FPassing clouds.6 mph53%30.04 "HgN/A
8:30 PM45 °FPassing clouds.6 mph53%30.04 "HgN/A
8:00 PM45 °FPassing clouds.3 mph53%30.04 "HgN/A
7:30 PM45 °FScattered clouds.3 mph53%30.01 "HgN/A
7:00 PM45 °FScattered clouds.6 mph57%30.01 "HgN/A
6:30 PM46 °FScattered clouds.6 mph50%30.01 "HgN/A
6:00 PM48 °FScattered clouds.8 mph46%29.98 "HgN/A
5:30 PM52 °FPassing clouds.1 mph35%29.98 "HgN/A
5:00 PM52 °FPassing clouds.1 mph35%29.98 "HgN/A
4:30 PM54 °FPassing clouds.1 mph33%29.98 "HgN/A
4:00 PM52 °FPartly sunny.1 mph32%29.98 "HgN/A
3:30 PM52 °FPartly sunny.6 mph35%29.98 "HgN/A
3:00 PM52 °FPartly sunny.3 mph35%29.98 "HgN/A
2:30 PM54 °FPartly sunny.1 mph33%29.98 "HgN/A
2:00 PM52 °FPartly sunny.3 mph35%30.01 "HgN/A
1:30 PM50 °FPartly sunny.3 mph43%30.01 "HgN/A
1:00 PM48 °FPartly sunny.3 mph43%30.01 "HgN/A
12:30 PM48 °FPartly sunny.1 mph46%30.01 "Hg5 mi
12:00 PM45 °FPartly sunny.1 mph53%30.01 "Hg5 mi
11:30 AM43 °FPartly sunny.1 mph57%30.04 "Hg5 mi
11:00 AM39 °FPartly sunny.No wind65%30.04 "Hg5 mi
10:30 AM37 °FPartly sunny.No wind70%30.04 "Hg5 mi
10:00 AM34 °FClear.1 mph81%30.04 "Hg4 mi
9:30 AM30 °FClear.No wind93%30.04 "Hg4 mi
9:00 AM28 °FClear.No wind93%30.04 "Hg5 mi
8:30 AM28 °FClear.No wind86%30.04 "Hg5 mi
8:00 AM25 °FClear.No wind93%30.04 "Hg5 mi
7:30 AM25 °FPassing clouds.1 mph93%30.04 "HgN/A
7:00 AM21 °FPassing clouds.No wind93%30.04 "HgN/A
6:30 AM23 °FClear.1 mph93%30.04 "Hg10 mi
6:00 AM23 °FClear.No wind93%30.04 "Hg10 mi
5:30 AM23 °FClear.No wind93%30.04 "Hg10 mi
4:30 AM23 °FClear.1 mph93%30.01 "Hg10 mi
4:00 AM25 °FClear.1 mph86%30.04 "Hg10 mi
3:00 AM25 °FClear.1 mph93%30.04 "Hg10 mi
2:00 AM27 °FClear.No wind93%30.04 "Hg10 mi
1:00 AM27 °FPassing clouds.1 mph93%30.04 "HgN/A
Weather by CustomWeather, © 2014

See weather overviewHow to use our weather pages